QPF
0.01 0.01 0.01 0.01 0.00 0.00 0.00 0.00 0.00 0.00 0.00 0.00 0.00 0.00 0.00 0.00 0.00 0.00 0.00 0.01 0.01 0.01 0.01 0.01 0.02 0.02 0.03 0.02 0.02 0.02 0.02 0.02 0.04 0.07 0.07 0.06 0.07 0.07 0.08 0.06 0.03 0.02 0.04
0.00 0.00 0.00 0.00 0.00 0.00 0.00 0.00 0.00 0.00 0.00 0.00 0.00 0.00 0.00 0.00 0.00 0.00 0.00 0.01 0.01 0.01 0.01 0.01 0.02 0.02 0.01 0.02 0.02 0.02 0.02 0.03 0.05 0.07 0.11 0.10 0.12 0.11 0.07 0.04 0.01 0.02 0.04
0.00 0.00 0.00 0.00 0.00 0.00 0.00 0.00 0.00 0.00 0.00 0.00 0.00 0.00 0.00 0.00 0.00 0.00 0.01 0.00 0.01 0.01 0.01 0.01 0.01 0.01 0.01 0.01 0.01 0.01 0.02 0.04 0.07 0.08 0.08 0.06 0.10 0.11 0.07 0.05 0.03 0.02 0.03
0.00 0.00 0.00 0.00 0.00 0.00 0.00 0.00 0.00 0.00 0.00 0.00 0.00 0.00 0.00 0.00 0.00 0.00 0.00 0.00 0.01 0.01 0.01 0.01 0.01 0.01 0.01 0.01 0.01 0.02 0.03 0.04 0.07 0.04 0.02 0.02 0.03 0.09 0.07 0.05 0.02 0.02 0.02
0.00 0.00 0.00 0.00 0.00 0.00 0.00 0.00 0.00 0.00 0.00 0.00 0.00 0.00 0.00 0.00 0.00 0.00 0.01 0.01 0.01 0.01 0.01 0.01 0.01 0.01 0.01 0.01 0.02 0.03 0.04 0.05 0.05 0.02 0.01 0.01 0.02 0.06 0.06 0.03 0.02 0.02 0.01
0.00 0.00 0.00 0.00 0.00 0.00 0.00 0.00 0.00 0.00 0.00 0.00 0.00 0.00 0.00 0.00 0.00 0.00 0.01 0.01 0.01 0.01 0.01 0.00 0.01 0.01 0.01 0.02 0.02 0.04 0.06 0.08 0.04 0.01 0.01 0.01 0.01 0.04 0.06 0.03 0.02 0.01 0.01
0.00 0.00 0.00 0.00 0.00 0.00 0.00 0.00 0.00 0.00 0.00 0.00 0.00 0.00 0.00 0.00 0.00 0.01 0.01 0.01 0.01 0.01 0.00 0.01 0.01 0.01 0.01 0.01 0.02 0.03 0.07 0.09 0.03 0.01 0.00 0.00 0.01 0.03 0.04 0.03 0.02 0.01 0.01
0.01 0.00 0.00 0.00 0.00 0.00 0.00 0.00 0.00 0.00 0.00 0.00 0.00 0.00 0.01 0.00 0.00 0.01 0.01 0.01 0.01 0.01 0.01 0.01 0.01 0.01 0.01 0.01 0.02 0.04 0.08 0.06 0.02 0.01 0.00 0.00 0.02 0.03 0.03 0.03 0.02 0.01 0.01
0.02 0.01 0.01 0.01 0.00 0.00 0.01 0.01 0.01 0.01 0.01 0.01 0.01 0.00 0.01 0.01 0.01 0.00 0.00 0.00 0.00 0.00 0.00 0.00 0.01 0.01 0.01 0.02 0.03 0.04 0.08 0.07 0.02 0.01 0.01 0.00 0.02 0.02 0.02 0.02 0.01 0.01 0.01
0.05 0.03 0.02 0.01 0.00 0.00 0.01 0.01 0.01 0.01 0.01 0.01 0.01 0.00 0.01 0.01 0.01 0.01 0.00 0.01 0.01 0.00 0.00 0.00 0.01 0.01 0.01 0.02 0.03 0.05 0.08 0.05 0.01 0.01 0.01 0.01 0.02 0.02 0.01 0.01 0.01 0.01 0.01
0.10 0.08 0.06 0.04 0.01 0.01 0.01 0.01 0.01 0.01 0.01 0.01 0.01 0.01 0.01 0.00 0.00 0.00 0.01 0.02 0.02 0.01 0.00 0.01 0.01 0.01 0.01 0.01 0.03 0.07 0.05 0.02 0.02 0.01 0.00 0.01 0.03 0.03 0.02 0.01 0.01 0.01 0.01
0.14 0.08 0.08 0.07 0.03 0.02 0.01 0.00 0.00 0.01 0.01 0.01 0.01 0.01 0.01 0.00 0.00 0.00 0.01 0.03 0.03 0.02 0.01 0.02 0.02 0.02 0.01 0.01 0.02 0.03 0.02 0.01 0.02 0.01 0.01 0.03 0.04 0.06 0.04 0.03 0.02 0.01 0.01
0.16 0.11 0.10 0.09 0.06 0.03 0.01 0.00 0.00 0.00 0.01 0.01 0.01 0.01 0.00 0.00 0.00 0.00 0.01 0.02 0.03 0.03 0.02 0.02 0.02 0.01 0.01 0.01 0.01 0.01 0.02 0.02 0.02 0.01 0.01 0.03 0.04 0.07 0.08 0.06 0.05 0.04 0.02
0.22 0.18 0.11 0.09 0.07 0.04 0.02 0.00 0.00 0.00 0.00 0.00 0.00 0.01 0.00 0.00 0.00 0.01 0.02 0.03 0.03 0.02 0.02 0.02 0.01 0.01 0.02 0.02 0.02 0.02 0.03 0.03 0.02 0.01 0.02 0.03 0.03 0.05 0.07 0.07 0.07 0.06 0.05
0.24 0.24 0.18 0.12 0.08 0.04 0.03 0.02 0.00 0.01 0.01 0.01 0.01 0.01 0.01 0.02 0.02 0.02 0.02 0.02 0.01 0.01 0.02 0.02 0.02 0.02 0.01 0.02 0.02 0.01 0.02 0.02 0.02 0.01 0.02 0.03 0.04 0.05 0.06 0.07 0.07 0.07 0.08
0.21 0.21 0.18 0.15 0.10 0.07 0.05 0.02 0.01 0.01 0.01 0.01 0.01 0.01 0.02 0.03 0.03 0.04 0.04 0.03 0.02 0.02 0.03 0.03 0.03 0.03 0.02 0.03 0.02 0.01 0.02 0.03 0.03 0.02 0.02 0.03 0.05 0.05 0.06 0.09 0.10 0.09 0.09
0.23 0.21 0.16 0.11 0.10 0.08 0.05 0.04 0.02 0.02 0.02 0.02 0.02 0.02 0.03 0.03 0.03 0.04 0.04 0.03 0.03 0.02 0.02 0.02 0.03 0.03 0.02 0.02 0.02 0.01 0.01 0.02 0.02 0.03 0.03 0.03 0.03 0.05 0.05 0.07 0.09 0.11 0.12
0.30 0.27 0.18 0.09 0.07 0.06 0.07 0.05 0.05 0.05 0.04 0.03 0.02 0.03 0.03 0.03 0.03 0.03 0.04 0.04 0.02 0.02 0.02 0.02 0.03 0.04 0.03 0.02 0.03 0.02 0.02 0.02 0.02 0.03 0.03 0.02 0.03 0.03 0.05 0.06 0.07 0.08 0.10
0.34 0.27 0.23 0.13 0.08 0.08 0.07 0.09 0.10 0.08 0.05 0.04 0.04 0.04 0.05 0.05 0.04 0.03 0.02 0.02 0.02 0.02 0.02 0.02 0.02 0.03 0.02 0.02 0.02 0.02 0.01 0.02 0.02 0.02 0.02 0.02 0.02 0.02 0.03 0.05 0.06 0.06 0.08
0.38 0.35 0.28 0.22 0.16 0.13 0.11 0.12 0.12 0.08 0.05 0.05 0.05 0.04 0.03 0.03 0.03 0.02 0.01 0.02 0.02 0.02 0.02 0.01 0.02 0.01 0.01 0.01 0.01 0.02 0.01 0.01 0.01 0.01 0.02 0.02 0.02 0.02 0.02 0.04 0.03 0.05 0.08
0.45 0.47 0.40 0.29 0.23 0.20 0.16 0.12 0.09 0.05 0.04 0.06 0.07 0.06 0.04 0.03 0.03 0.03 0.02 0.02 0.02 0.02 0.01 0.01 0.01 0.01 0.00 0.00 0.00 0.00 0.01 0.01 0.01 0.02 0.01 0.01 0.01 0.01 0.01 0.01 0.02 0.03 0.04
0.39 0.42 0.45 0.36 0.32 0.26 0.21 0.17 0.15 0.11 0.09 0.10 0.08 0.06 0.05 0.03 0.03 0.03 0.02 0.01 0.01 0.01 0.00 0.00 0.00 0.00 0.00 0.00 0.00 0.00 0.00 0.00 0.00 0.00 0.00 0.00 0.01 0.01 0.01 0.01 0.01 0.01 0.01
0.37 0.38 0.38 0.32 0.31 0.30 0.27 0.27 0.24 0.19 0.14 0.11 0.08 0.07 0.05 0.04 0.02 0.02 0.02 0.01 0.01 0.01 0.00 0.00 0.00 0.00 0.00 0.01 0.00 0.00 0.00 0.00 0.00 0.00 0.00 0.00 0.00 0.00 0.01 0.00 0.00 0.00 0.00
0.25 0.30 0.37 0.29 0.26 0.26 0.24 0.22 0.23 0.19 0.13 0.10 0.07 0.07 0.06 0.05 0.04 0.03 0.02 0.01 0.01 0.01 0.00 0.00 0.00 0.00 0.00 0.00 0.00 0.00 0.00 0.00 0.00 0.00 0.00 0.00 0.00 0.00 0.00 0.00 0.00 0.00 0.00
0.12 0.18 0.24 0.24 0.22 0.20 0.19 0.17 0.20 0.21 0.17 0.13 0.10 0.08 0.06 0.04 0.04 0.03 0.02 0.01 0.01 0.01 0.01 0.00 0.00 0.00 0.00 0.00 0.00 0.00 0.00 0.00 0.00 0.00 0.00 0.00 0.00 0.00 0.00 0.00 0.00 0.00 0.00
0.09 0.15 0.20 0.17 0.17 0.15 0.16 0.14 0.13 0.16 0.17 0.15 0.10 0.08 0.05 0.03 0.03 0.02 0.01 0.01 0.01 0.02 0.01 0.01 0.01 0.01 0.01 0.00 0.00 0.00 0.00 0.00 0.00 0.00 0.00 0.00 0.00 0.00 0.00 0.00 0.00 0.00 0.00
MSLP
1011.75 1011.61 1011.65 1011.82 1012.07 1012.35 1012.60 1012.78 1012.88 1012.93 1012.96 1013.00 1013.09 1013.25 1013.48 1013.75 1014.05 1014.35 1014.61 1014.81 1014.96 1015.05 1015.11 1015.14 1015.16 1015.18 1015.22 1015.28 1015.36 1015.45 1015.56 1015.69 1015.82 1015.97 1016.12 1016.28 1016.45 1016.63 1016.81 1017.00 1017.19 1017.37 1017.54
1011.30 1011.32 1011.50 1011.80 1012.16 1012.52 1012.82 1013.04 1013.18 1013.25 1013.30 1013.37 1013.49 1013.66 1013.90 1014.17 1014.46 1014.73 1014.96 1015.14 1015.27 1015.37 1015.43 1015.47 1015.50 1015.54 1015.57 1015.62 1015.67 1015.74 1015.82 1015.93 1016.06 1016.20 1016.36 1016.53 1016.71 1016.90 1017.08 1017.27 1017.45 1017.62 1017.80
1010.85 1011.02 1011.34 1011.76 1012.21 1012.65 1013.01 1013.27 1013.45 1013.56 1013.65 1013.76 1013.90 1014.09 1014.32 1014.58 1014.83 1015.06 1015.25 1015.40 1015.51 1015.60 1015.67 1015.73 1015.78 1015.83 1015.87 1015.91 1015.95 1016.01 1016.08 1016.18 1016.31 1016.46 1016.63 1016.82 1017.00 1017.19 1017.36 1017.54 1017.71 1017.88 1018.05
1010.49 1010.79 1011.22 1011.73 1012.26 1012.76 1013.17 1013.48 1013.69 1013.85 1013.98 1014.12 1014.29 1014.49 1014.70 1014.93 1015.14 1015.31 1015.46 1015.58 1015.67 1015.76 1015.84 1015.92 1016.00 1016.07 1016.12 1016.17 1016.21 1016.26 1016.34 1016.45 1016.59 1016.76 1016.95 1017.14 1017.33 1017.50 1017.66 1017.82 1017.98 1018.14 1018.32
1010.26 1010.66 1011.17 1011.75 1012.33 1012.86 1013.30 1013.64 1013.90 1014.09 1014.26 1014.43 1014.61 1014.82 1015.02 1015.21 1015.38 1015.51 1015.62 1015.71 1015.79 1015.88 1015.99 1016.09 1016.19 1016.28 1016.35 1016.41 1016.46 1016.52 1016.62 1016.74 1016.91 1017.10 1017.31 1017.51 1017.69 1017.84 1017.98 1018.11 1018.25 1018.40 1018.59
1010.19 1010.65 1011.21 1011.83 1012.43 1012.97 1013.42 1013.77 1014.05 1014.27 1014.47 1014.67 1014.87 1015.08 1015.28 1015.45 1015.58 1015.69 1015.76 1015.84 1015.92 1016.03 1016.15 1016.27 1016.40 1016.50 1016.59 1016.65 1016.72 1016.80 1016.91 1017.06 1017.25 1017.47 1017.69 1017.89 1018.07 1018.20 1018.31 1018.40 1018.51 1018.66 1018.85
1010.25 1010.75 1011.33 1011.95 1012.55 1013.08 1013.51 1013.86 1014.14 1014.38 1014.61 1014.84 1015.07 1015.30 1015.50 1015.67 1015.79 1015.88 1015.95 1016.02 1016.11 1016.23 1016.37 1016.51 1016.65 1016.77 1016.85 1016.92 1016.99 1017.08 1017.21 1017.38 1017.60 1017.84 1018.07 1018.28 1018.44 1018.55 1018.62 1018.69 1018.77 1018.90 1019.08
1010.41 1010.92 1011.50 1012.10 1012.67 1013.17 1013.58 1013.91 1014.20 1014.45 1014.71 1014.98 1015.24 1015.50 1015.72 1015.90 1016.03 1016.13 1016.20 1016.28 1016.38 1016.51 1016.66 1016.81 1016.95 1017.07 1017.15 1017.22 1017.28 1017.37 1017.51 1017.70 1017.93 1018.19 1018.43 1018.64 1018.79 1018.88 1018.93 1018.96 1019.01 1019.12 1019.29
1010.62 1011.13 1011.69 1012.26 1012.79 1013.24 1013.62 1013.93 1014.22 1014.49 1014.78 1015.09 1015.40 1015.70 1015.96 1016.17 1016.32 1016.44 1016.53 1016.62 1016.72 1016.86 1017.01 1017.16 1017.29 1017.39 1017.46 1017.51 1017.57 1017.66 1017.79 1017.99 1018.23 1018.49 1018.74 1018.95 1019.09 1019.17 1019.20 1019.21 1019.24 1019.33 1019.49
1010.85 1011.35 1011.88 1012.41 1012.89 1013.30 1013.64 1013.94 1014.22 1014.52 1014.85 1015.20 1015.57 1015.91 1016.22 1016.47 1016.65 1016.78 1016.88 1016.98 1017.09 1017.22 1017.37 1017.51 1017.63 1017.71 1017.77 1017.80 1017.85 1017.92 1018.05 1018.24 1018.47 1018.74 1018.99 1019.20 1019.34 1019.42 1019.44 1019.45 1019.47 1019.54 1019.69
1011.06 1011.55 1012.06 1012.54 1012.97 1013.34 1013.65 1013.93 1014.22 1014.54 1014.91 1015.31 1015.73 1016.13 1016.48 1016.76 1016.97 1017.13 1017.24 1017.34 1017.45 1017.57 1017.70 1017.83 1017.93 1018.01 1018.05 1018.07 1018.10 1018.17 1018.28 1018.45 1018.68 1018.93 1019.17 1019.38 1019.53 1019.61 1019.65 1019.67 1019.69 1019.76 1019.89
1011.24 1011.72 1012.21 1012.65 1013.04 1013.37 1013.66 1013.93 1014.23 1014.57 1014.98 1015.42 1015.88 1016.33 1016.72 1017.03 1017.26 1017.43 1017.55 1017.65 1017.75 1017.86 1017.98 1018.09 1018.19 1018.26 1018.30 1018.32 1018.35 1018.40 1018.50 1018.65 1018.85 1019.07 1019.30 1019.50 1019.65 1019.75 1019.81 1019.85 1019.90 1019.98 1020.10
1011.37 1011.85 1012.32 1012.73 1013.09 1013.39 1013.66 1013.93 1014.24 1014.61 1015.04 1015.52 1016.01 1016.49 1016.90 1017.24 1017.49 1017.67 1017.79 1017.89 1017.99 1018.09 1018.21 1018.32 1018.42 1018.50 1018.55 1018.57 1018.60 1018.64 1018.72 1018.84 1019.00 1019.18 1019.38 1019.56 1019.71 1019.82 1019.91 1019.98 1020.06 1020.16 1020.29
1011.44 1011.92 1012.37 1012.77 1013.11 1013.39 1013.66 1013.94 1014.26 1014.65 1015.10 1015.60 1016.11 1016.60 1017.03 1017.38 1017.64 1017.83 1017.97 1018.08 1018.18 1018.29 1018.41 1018.53 1018.64 1018.73 1018.80 1018.84 1018.87 1018.91 1018.96 1019.03 1019.14 1019.27 1019.42 1019.57 1019.70 1019.82 1019.93 1020.03 1020.14 1020.27 1020.41
1011.43 1011.91 1012.36 1012.74 1013.07 1013.36 1013.64 1013.94 1014.28 1014.68 1015.15 1015.65 1016.16 1016.65 1017.09 1017.45 1017.73 1017.94 1018.10 1018.23 1018.35 1018.48 1018.61 1018.75 1018.89 1019.00 1019.09 1019.15 1019.18 1019.21 1019.23 1019.26 1019.30 1019.37 1019.45 1019.54 1019.64 1019.75 1019.87 1019.99 1020.13 1020.28 1020.44
1011.32 1011.80 1012.23 1012.62 1012.97 1013.28 1013.59 1013.93 1014.30 1014.72 1015.19 1015.69 1016.19 1016.67 1017.10 1017.47 1017.77 1018.01 1018.20 1018.37 1018.53 1018.69 1018.86 1019.02 1019.18 1019.32 1019.42 1019.50 1019.54 1019.55 1019.54 1019.52 1019.50 1019.48 1019.49 1019.51 1019.56 1019.63 1019.74 1019.86 1020.01 1020.17 1020.34
1011.08 1011.54 1011.98 1012.39 1012.77 1013.14 1013.51 1013.90 1014.31 1014.76 1015.23 1015.71 1016.19 1016.65 1017.07 1017.45 1017.77 1018.05 1018.30 1018.53 1018.74 1018.95 1019.15 1019.34 1019.52 1019.67 1019.79 1019.87 1019.92 1019.92 1019.88 1019.82 1019.73 1019.65 1019.57 1019.51 1019.49 1019.51 1019.58 1019.68 1019.82 1019.97 1020.13
1010.71 1011.16 1011.59 1012.03 1012.47 1012.92 1013.38 1013.84 1014.32 1014.80 1015.28 1015.74 1016.19 1016.62 1017.02 1017.40 1017.75 1018.08 1018.39 1018.68 1018.96 1019.21 1019.45 1019.67 1019.86 1020.03 1020.16 1020.25 1020.29 1020.29 1020.24 1020.15 1020.02 1019.87 1019.72 1019.59 1019.49 1019.44 1019.45 1019.51 1019.61 1019.73 1019.87
1010.22 1010.64 1011.08 1011.56 1012.08 1012.63 1013.20 1013.77 1014.32 1014.85 1015.33 1015.78 1016.19 1016.57 1016.95 1017.33 1017.70 1018.08 1018.45 1018.81 1019.15 1019.46 1019.73 1019.97 1020.18 1020.35 1020.48 1020.58 1020.64 1020.65 1020.61 1020.52 1020.37 1020.19 1019.98 1019.78 1019.61 1019.49 1019.42 1019.41 1019.45 1019.53 1019.63
1009.65 1010.03 1010.48 1011.02 1011.63 1012.30 1012.99 1013.68 1014.32 1014.90 1015.39 1015.82 1016.19 1016.53 1016.87 1017.24 1017.62 1018.04 1018.47 1018.89 1019.29 1019.64 1019.95 1020.20 1020.41 1020.59 1020.73 1020.85 1020.93 1020.98 1020.97 1020.90 1020.77 1020.58 1020.35 1020.11 1019.88 1019.68 1019.54 1019.45 1019.42 1019.44 1019.48
1009.05 1009.40 1009.86 1010.44 1011.15 1011.94 1012.77 1013.58 1014.32 1014.95 1015.46 1015.87 1016.19 1016.49 1016.79 1017.12 1017.51 1017.95 1018.42 1018.89 1019.34 1019.73 1020.06 1020.32 1020.54 1020.72 1020.88 1021.02 1021.15 1021.24 1021.29 1021.29 1021.20 1021.04 1020.82 1020.56 1020.29 1020.03 1019.82 1019.65 1019.55 1019.49 1019.47
1008.50 1008.81 1009.28 1009.91 1010.71 1011.62 1012.57 1013.49 1014.31 1015.00 1015.53 1015.91 1016.20 1016.44 1016.69 1017.00 1017.38 1017.82 1018.32 1018.82 1019.29 1019.71 1020.05 1020.33 1020.55 1020.73 1020.91 1021.09 1021.27 1021.43 1021.57 1021.64 1021.63 1021.53 1021.35 1021.10 1020.81 1020.51 1020.23 1020.00 1019.82 1019.70 1019.61
1008.08 1008.36 1008.82 1009.49 1010.35 1011.35 1012.40 1013.41 1014.31 1015.04 1015.58 1015.95 1016.20 1016.40 1016.61 1016.87 1017.23 1017.67 1018.17 1018.68 1019.17 1019.60 1019.95 1020.23 1020.45 1020.64 1020.84 1021.06 1021.29 1021.54 1021.76 1021.92 1022.01 1021.98 1021.86 1021.64 1021.35 1021.03 1020.72 1020.43 1020.20 1020.01 1019.88
1007.85 1008.10 1008.55 1009.24 1010.14 1011.18 1012.29 1013.36 1014.31 1015.07 1015.62 1015.98 1016.20 1016.36 1016.52 1016.76 1017.08 1017.51 1018.00 1018.51 1019.00 1019.43 1019.78 1020.06 1020.28 1020.48 1020.69 1020.94 1021.23 1021.54 1021.84 1022.10 1022.27 1022.32 1022.26 1022.09 1021.83 1021.51 1021.18 1020.87 1020.59 1020.36 1020.19
1007.84 1008.07 1008.50 1009.18 1010.07 1011.13 1012.25 1013.34 1014.30 1015.07 1015.62 1015.97 1016.18 1016.31 1016.45 1016.66 1016.96 1017.36 1017.84 1018.34 1018.82 1019.24 1019.58 1019.84 1020.06 1020.27 1020.49 1020.76 1021.08 1021.44 1021.80 1022.12 1022.37 1022.49 1022.49 1022.37 1022.15 1021.86 1021.53 1021.21 1020.91 1020.67 1020.46
1008.05 1008.26 1008.68 1009.32 1010.17 1011.18 1012.27 1013.33 1014.28 1015.04 1015.58 1015.92 1016.12 1016.25 1016.38 1016.56 1016.85 1017.23 1017.69 1018.17 1018.63 1019.04 1019.36 1019.62 1019.83 1020.03 1020.25 1020.53 1020.86 1021.24 1021.63 1022.00 1022.28 1022.46 1022.52 1022.44 1022.27 1022.01 1021.71 1021.41 1021.12 1020.87 1020.65
Thickness
5784 5785 5783 5781 5779 5778 5777 5777 5775 5774 5773 5772 5771 5770 5768 5767 5765 5764 5762 5760 5759 5758 5756 5756 5755 5754 5753 5752 5751 5750 5749 5748 5747 5745 5744 5743 5741 5740 5739 5737 5736 5735 5734
5791 5786 5783 5781 5779 5777 5776 5775 5774 5773 5772 5770 5769 5768 5766 5765 5764 5762 5761 5759 5758 5756 5755 5754 5753 5752 5751 5750 5749 5748 5747 5746 5745 5744 5742 5741 5740 5738 5737 5736 5735 5733 5732
5791 5787 5783 5780 5778 5776 5774 5773 5772 5771 5769 5768 5767 5766 5765 5763 5762 5761 5759 5758 5756 5755 5754 5752 5751 5750 5749 5748 5747 5746 5745 5744 5743 5742 5740 5739 5738 5737 5736 5734 5733 5732 5730
5790 5786 5782 5779 5777 5775 5773 5771 5770 5769 5768 5766 5765 5764 5763 5761 5760 5759 5757 5756 5755 5753 5752 5750 5749 5748 5747 5746 5745 5743 5742 5741 5740 5739 5738 5737 5736 5735 5734 5733 5731 5730 5729
5787 5784 5781 5778 5775 5773 5771 5769 5768 5767 5766 5764 5763 5762 5761 5759 5758 5757 5755 5754 5753 5751 5750 5749 5747 5746 5745 5744 5742 5741 5740 5739 5738 5737 5736 5735 5734 5733 5732 5731 5730 5729 5727
5785 5782 5780 5777 5774 5772 5770 5768 5766 5764 5763 5762 5761 5760 5758 5757 5756 5754 5753 5752 5750 5749 5748 5746 5745 5744 5743 5742 5741 5740 5739 5737 5735 5734 5733 5732 5731 5731 5730 5729 5728 5727 5726
5781 5780 5778 5775 5772 5770 5768 5766 5764 5763 5761 5760 5758 5757 5756 5754 5753 5752 5750 5749 5748 5747 5746 5744 5743 5741 5741 5740 5739 5738 5737 5735 5734 5732 5731 5730 5729 5729 5728 5727 5726 5724 5723
5779 5777 5775 5773 5771 5768 5767 5765 5763 5761 5760 5758 5756 5755 5754 5752 5751 5749 5748 5747 5746 5745 5743 5742 5740 5739 5739 5738 5738 5737 5736 5734 5732 5730 5729 5728 5727 5727 5726 5725 5723 5723 5722
5776 5774 5772 5770 5768 5767 5765 5763 5762 5760 5758 5756 5754 5753 5752 5750 5749 5747 5746 5745 5744 5743 5741 5740 5739 5737 5737 5736 5736 5735 5734 5733 5730 5728 5727 5726 5725 5725 5724 5723 5722 5721 5720
5770 5769 5768 5767 5766 5764 5763 5761 5760 5758 5757 5755 5752 5751 5749 5748 5746 5745 5744 5743 5742 5741 5740 5738 5737 5736 5735 5734 5734 5733 5732 5730 5728 5726 5725 5723 5723 5722 5722 5721 5720 5719 5718
5763 5764 5764 5764 5763 5761 5760 5759 5758 5757 5755 5753 5751 5749 5747 5745 5744 5743 5741 5741 5740 5739 5738 5736 5735 5734 5733 5733 5732 5731 5730 5728 5726 5725 5723 5722 5721 5720 5720 5719 5718 5718 5717
5759 5760 5761 5760 5759 5758 5757 5756 5755 5754 5753 5751 5749 5747 5745 5743 5742 5741 5739 5739 5738 5737 5736 5735 5733 5732 5731 5731 5730 5729 5728 5726 5724 5723 5722 5721 5720 5718 5718 5717 5716 5716 5715
5759 5758 5758 5757 5756 5755 5755 5754 5753 5752 5750 5748 5747 5745 5742 5740 5739 5739 5737 5736 5736 5735 5734 5733 5732 5730 5730 5729 5728 5727 5726 5725 5723 5722 5721 5719 5718 5717 5716 5716 5715 5714 5713
5756 5756 5754 5753 5752 5751 5751 5751 5750 5749 5747 5746 5745 5743 5741 5739 5737 5736 5735 5734 5733 5733 5732 5731 5730 5729 5728 5727 5727 5726 5725 5723 5722 5721 5720 5719 5718 5717 5716 5714 5713 5713 5712
5753 5753 5752 5751 5749 5748 5748 5748 5748 5746 5745 5744 5743 5741 5739 5737 5736 5735 5734 5733 5732 5731 5730 5729 5728 5727 5727 5726 5725 5724 5723 5722 5721 5720 5719 5718 5717 5716 5714 5713 5712 5711 5710
5752 5751 5750 5748 5747 5746 5746 5746 5746 5744 5743 5742 5741 5739 5738 5736 5735 5734 5732 5731 5731 5730 5729 5728 5727 5726 5725 5724 5723 5723 5722 5721 5719 5718 5718 5717 5716 5715 5714 5713 5712 5711 5709
5749 5747 5745 5744 5744 5743 5744 5744 5744 5742 5741 5740 5739 5738 5737 5735 5734 5733 5732 5730 5730 5729 5728 5727 5726 5724 5723 5723 5722 5721 5721 5719 5718 5717 5717 5716 5715 5714 5713 5712 5712 5710 5709
5745 5743 5742 5742 5741 5741 5741 5741 5741 5741 5740 5739 5738 5737 5736 5734 5733 5732 5731 5730 5728 5728 5727 5726 5724 5722 5721 5720 5720 5719 5719 5718 5718 5717 5716 5715 5714 5713 5713 5712 5711 5710 5709
5743 5742 5740 5739 5739 5737 5737 5737 5737 5738 5737 5737 5736 5735 5734 5733 5732 5731 5730 5729 5727 5727 5726 5725 5722 5720 5719 5718 5718 5717 5717 5717 5716 5716 5715 5714 5713 5712 5712 5711 5711 5710 5709
5740 5739 5738 5737 5736 5734 5733 5732 5732 5733 5734 5734 5734 5734 5733 5732 5731 5730 5729 5728 5727 5726 5724 5723 5721 5719 5718 5717 5717 5715 5715 5715 5715 5715 5715 5714 5713 5712 5712 5711 5711 5710 5709
5736 5734 5734 5733 5733 5731 5729 5728 5727 5728 5730 5731 5732 5732 5732 5731 5730 5729 5728 5727 5726 5725 5724 5722 5720 5718 5716 5716 5714 5711 5712 5713 5714 5714 5714 5713 5713 5712 5712 5711 5710 5709 5708
5735 5732 5730 5731 5730 5729 5729 5729 5728 5728 5728 5729 5729 5729 5730 5730 5729 5728 5727 5726 5726 5724 5722 5721 5720 5717 5715 5714 5712 5707 5704 5706 5710 5712 5712 5712 5712 5711 5711 5710 5709 5709 5708
5734 5733 5732 5729 5728 5727 5727 5726 5725 5722 5723 5723 5724 5726 5728 5728 5728 5728 5727 5726 5725 5724 5722 5721 5720 5718 5714 5713 5713 5709 5703 5700 5703 5707 5709 5710 5710 5710 5710 5709 5708 5708 5707
5735 5734 5731 5729 5727 5726 5725 5724 5723 5721 5720 5722 5724 5725 5726 5726 5726 5726 5726 5725 5725 5724 5723 5722 5721 5719 5716 5712 5711 5710 5709 5707 5703 5702 5705 5707 5708 5708 5708 5708 5708 5707 5706
5735 5734 5730 5727 5725 5725 5725 5725 5723 5722 5721 5721 5723 5723 5723 5723 5724 5724 5725 5724 5724 5723 5722 5721 5720 5719 5717 5714 5712 5710 5707 5705 5705 5703 5700 5703 5705 5706 5707 5707 5706 5706 5705
5734 5731 5729 5726 5724 5724 5725 5725 5724 5722 5720 5719 5720 5720 5720 5721 5721 5722 5723 5723 5722 5722 5721 5720 5720 5718 5717 5716 5714 5712 5710 5707 5705 5703 5700 5699 5700 5703 5704 5705 5705 5704 5703